,,,PA_Meas_PMT16A,,PR_Meas_QMR101_102,,RH_Meas_QMH101,,SR_Meas_QMS101,,TA_Meas_QMH101,,GenWind,,GenWind,
date,time,status,PA,status,PR,status,RH,status,SR,status,TA,status,DirAvg,status,SpdAvg,
2009-03-22, 00:00:04,VALID,1000.92,VALID,0,VALID,93.7146,VALID,0,VALID,23.1549,VALID,100,VALID,0,
2009-03-22, 00:01:04,VALID,1000.91,VALID,0,VALID,93.7451,VALID,0,VALID,23.1549,VALID,100,VALID,0.00351562,
2009-03-22, 00:02:04,VALID,1000.9,VALID,0,VALID,93.5773,VALID,0,VALID,23.1566,VALID,100,VALID,0.283594,
2009-03-22, 00:03:04,VALID,1000.86,VALID,0,VALID,93.8825,VALID,0,VALID,23.1566,VALID,100,VALID,0.423047,
2009-03-22, 00:04:04,VALID,1000.83,VALID,0,VALID,93.8748,VALID,0,VALID,23.1762,VALID,100,VALID,0.369141,
2009-03-22, 00:05:04,VALID,1000.82,VALID,0,VALID,93.8596,VALID,0,VALID,23.1957,VALID,100,VALID,0.297656,
2009-03-22, 00:06:04,VALID,1000.78,VALID,0,VALID,93.7833,VALID,0,VALID,23.1957,VALID,100,VALID,0.402344,
2009-03-22, 00:07:04,VALID,1000.81,VALID,0,VALID,93.8062,VALID,0,VALID,23.1957,VALID,100,VALID,0.529688,
2009-03-22, 00:08:04,VALID,1000.78,VALID,0,VALID,93.8748,VALID,0,VALID,23.2152,VALID,100,VALID,0.5,
2009-03-22, 00:09:04,VALID,1000.77,VALID,0,VALID,93.8367,VALID,0,VALID,23.2347,VALID,100,VALID,0.303906,
2009-03-22, 00:10:04,VALID,1000.79,VALID,0,VALID,93.8138,VALID,0,VALID,23.2347,VALID,100,VALID,0.319531,
2009-03-22, 00:11:04,VALID,1000.78,VALID,0,VALID,93.7528,VALID,0,VALID,23.2347,VALID,100,VALID,0.403125,
2009-03-22, 00:12:04,VALID,1000.75,VALID,0,VALID,93.7375,VALID,0,VALID,23.2152,VALID,100,VALID,0.319141,
2009-03-22, 00:13:04,VALID,1000.72,VALID,0,VALID,93.8062,VALID,0,VALID,23.2347,VALID,100,VALID,0.485156,
2009-03-22, 00:14:04,VALID,1000.72,VALID,0,VALID,93.7528,VALID,0,VALID,23.2347,VALID,121,VALID,0.653125,
2009-03-22, 00:15:04,VALID,1000.72,VALID,0,VALID,93.6688,VALID,0,VALID,23.2347,VALID,100,VALID,0.946875,
2009-03-22, 00:16:04,VALID,1000.67,VALID,0,VALID,93.6536,VALID,0,VALID,23.2542,VALID,110,VALID,0.923828,
2009-03-22, 00:17:04,VALID,1000.69,VALID,0,VALID,93.5468,VALID,0,VALID,23.2329,VALID,104,VALID,0.783203,
2009-03-22, 00:18:04,VALID,1000.64,VALID,0,VALID,93.6612,VALID,0,VALID,23.2542,VALID,104,VALID,0.648047,
2009-03-22, 00:19:04,VALID,1000.64,VALID,0,VALID,93.501,VALID,0,VALID,23.2737,VALID,104,VALID,0.224219,
2009-03-22, 00:20:04,VALID,1000.61,VALID,0,VALID,93.4094,VALID,0,VALID,23.2542,VALID,104,VALID,0.149609,
2009-03-22, 00:21:04,VALID,1000.59,VALID,0,VALID,93.3942,VALID,0,VALID,23.2347,VALID,104,VALID,0.0929687,
2009-03-22, 00:22:04,VALID,1000.58,VALID,0,VALID,93.3713,VALID,0,VALID,23.2152,VALID,104,VALID,0.153516,
2009-03-22, 00:23:04,VALID,1000.55,VALID,0,VALID,93.4323,VALID,0,VALID,23.1744,VALID,104,VALID,0.217187,
2009-03-22, 00:24:04,VALID,1000.53,VALID,0,VALID,93.501,VALID,0,VALID,23.1957,VALID,104,VALID,0.403516,
2009-03-22, 00:25:04,VALID,1000.53,VALID,0,VALID,93.562,VALID,0,VALID,23.1957,VALID,104,VALID,0.490625,
2009-03-22, 00:26:04,VALID,1000.51,VALID,0,VALID,93.5468,VALID,0,VALID,23.1957,VALID,104,VALID,0.311328,
2009-03-22, 00:27:04,VALID,1000.5,VALID,0,VALID,93.5468,VALID,0,VALID,23.1957,VALID,104,VALID,0.189453,
2009-03-22, 00:28:04,VALID,1000.5,VALID,0,VALID,93.5391,VALID,0,VALID,23.1957,VALID,104,VALID,0,
2009-03-22, 00:29:04,VALID,1000.49,VALID,0,VALID,93.4705,VALID,0,VALID,23.1957,VALID,104,VALID,0,
2009-03-22, 00:30:04,VALID,1000.49,VALID,0,VALID,93.4323,VALID,0,VALID,23.1762,VALID,104,VALID,0,
2009-03-22, 00:31:04,VALID,1000.48,VALID,0,VALID,93.44,VALID,0,VALID,23.1566,VALID,104,VALID,0,
2009-03-22, 00:32:04,VALID,1000.46,VALID,0,VALID,93.4628,VALID,0,VALID,23.1371,VALID,104,VALID,0,
2009-03-22, 00:33:04,VALID,1000.44,VALID,0,VALID,93.5163,VALID,0,VALID,23.1371,VALID,104,VALID,0,
2009-03-22, 00:34:04,VALID,1000.42,VALID,0,VALID,93.5239,VALID,0,VALID,23.1176,VALID,104,VALID,0,
2009-03-22, 00:35:04,VALID,1000.42,VALID,0,VALID,93.5315,VALID,0,VALID,23.0981,VALID,104,VALID,0,
2009-03-22, 00:36:04,VALID,1000.41,VALID,0,VALID,93.5163,VALID,0,VALID,23.0786,VALID,104,VALID,0.0964844,
2009-03-22, 00:37:04,VALID,1000.35,VALID,0,VALID,93.5239,VALID,0,VALID,23.0786,VALID,104,VALID,0.175391,
2009-03-22, 00:38:04,VALID,1000.38,VALID,0,VALID,93.501,VALID,0,VALID,23.0786,VALID,104,VALID,0,
2009-03-22, 00:39:04,VALID,1000.34,VALID,0,VALID,93.5391,VALID,0,VALID,23.0786,VALID,104,VALID,0.00429688,
2009-03-22, 00:40:04,VALID,1000.33,VALID,0,VALID,93.5163,VALID,0,VALID,23.0786,VALID,104,VALID,0.0914062,
2009-03-22, 00:41:04,VALID,1000.34,VALID,0,VALID,93.5163,VALID,0,VALID,23.0573,VALID,103,VALID,0.309375,
2009-03-22, 00:42:04,VALID,1000.28,VALID,0,VALID,93.2034,VALID,0,VALID,23.0396,VALID,103,VALID,0.210156,
2009-03-22, 00:43:04,VALID,1000.27,VALID,0,VALID,93.2034,VALID,0,VALID,22.9793,VALID,103,VALID,0,
2009-03-22, 00:44:04,VALID,1000.27,VALID,0,VALID,93.295,VALID,0,VALID,22.9615,VALID,103,VALID,0,
2009-03-22, 00:45:04,VALID,1000.22,VALID,0,VALID,93.4857,VALID,0,VALID,22.9403,VALID,103,VALID,0,
2009-03-22, 00:46:04,VALID,1000.19,VALID,0,VALID,93.44,VALID,0,VALID,22.942,VALID,103,VALID,0,
2009-03-22, 00:47:04,VALID,1000.23,VALID,0,VALID,93.4323,VALID,0,VALID,22.903,VALID,103,VALID,0,
2009-03-22, 00:48:04,VALID,1000.19,VALID,0,VALID,93.5163,VALID,0,VALID,22.8835,VALID,103,VALID,0,
2009-03-22, 00:49:04,VALID,1000.17,VALID,0,VALID,93.6917,VALID,0,VALID,22.864,VALID,103,VALID,0.205469,
2009-03-22, 00:50:04,VALID,1000.15,VALID,0,VALID,93.8748,VALID,0,VALID,22.864,VALID,103,VALID,0.120703,
2009-03-22, 00:51:04,VALID,1000.12,VALID,0,VALID,93.7909,VALID,0,VALID,22.864,VALID,103,VALID,0.0316406,
2009-03-22, 00:52:04,VALID,1000.09,VALID,0,VALID,93.7375,VALID,0,VALID,22.825,VALID,103,VALID,0.059375,
2009-03-22, 00:53:04,VALID,1000.05,VALID,0,VALID,93.9435,VALID,0,VALID,22.825,VALID,103,VALID,0.13125,
2009-03-22, 00:54:04,VALID,1000.02,VALID,0,VALID,93.9893,VALID,0,VALID,22.825,VALID,103,VALID,0.261719,
2009-03-22, 00:55:04,VALID,1000,VALID,0,VALID,93.9893,VALID,0,VALID,22.825,VALID,103,VALID,0.196875,
2009-03-22, 00:56:04,VALID,999.998,VALID,0,VALID,94.0503,VALID,0,VALID,22.8445,VALID,103,VALID,0.263672,
2009-03-22, 00:57:04,VALID,999.957,VALID,0,VALID,94.0808,VALID,0,VALID,22.864,VALID,103,VALID,0.233984,
2009-03-22, 00:58:04,VALID,999.949,VALID,0,VALID,94.0885,VALID,0,VALID,22.903,VALID,103,VALID,0.342969,
2009-03-22, 00:59:04,VALID,999.93,VALID,0,VALID,93.9893,VALID,0,VALID,22.8835,VALID,103,VALID,0.329297,
2009-03-22, 01:00:04,VALID,999.922,VALID,0,VALID,93.9511,VALID,0,VALID,22.903,VALID,103,VALID,0.367578,
2009-03-22, 01:01:04,VALID,999.931,VALID,0,VALID,93.8901,VALID,0,VALID,22.9225,VALID,103,VALID,0.236328,
2009-03-22, 01:02:04,VALID,999.915,VALID,0,VALID,93.7833,VALID,0,VALID,22.9225,VALID,103,VALID,0.117188,
2009-03-22, 01:03:04,VALID,999.879,VALID,0,VALID,93.7299,VALID,0,VALID,22.942,VALID,103,VALID,0.158203,
2009-03-22, 01:04:04,VALID,999.902,VALID,0,VALID,93.7375,VALID,0,VALID,22.942,VALID,103,VALID,0.136719,
2009-03-22, 01:05:04,VALID,999.895,VALID,0,VALID,93.6994,VALID,0,VALID,22.942,VALID,103,VALID,0,
2009-03-22, 01:06:04,VALID,999.911,VALID,0,VALID,93.7375,VALID,0,VALID,22.9615,VALID,103,VALID,0.3625,
2009-03-22, 01:07:04,VALID,999.914,VALID,0,VALID,93.6307,VALID,0,VALID,22.9811,VALID,103,VALID,0.135547,
2009-03-22, 01:08:04,VALID,999.916,VALID,0,VALID,93.5849,VALID,0,VALID,22.9811,VALID,103,VALID,0.24375,
2009-03-22, 01:09:04,VALID,999.923,VALID,0,VALID,93.5773,VALID,0,VALID,23.0006,VALID,103,VALID,0.181641,
2009-03-22, 01:10:04,VALID,999.901,VALID,0,VALID,93.6154,VALID,0,VALID,23.0006,VALID,103,VALID,0.16875,
2009-03-22, 01:11:04,VALID,999.871,VALID,0,VALID,93.5926,VALID,0,VALID,23.0006,VALID,103,VALID,0.201562,
2009-03-22, 01:12:04,VALID,999.868,VALID,0,VALID,93.4705,VALID,0,VALID,22.9793,VALID,104,VALID,0.323828,
2009-03-22, 01:13:04,VALID,999.825,VALID,0,VALID,93.3866,VALID,0,VALID,23.0006,VALID,103,VALID,0.312109,
2009-03-22, 01:14:05,VALID,999.817,VALID,0,VALID,93.356,VALID,0,VALID,23.0006,VALID,103,VALID,0.383203,
2009-03-22, 01:15:05,VALID,999.785,VALID,0,VALID,93.3484,VALID,0,VALID,23.0201,VALID,103,VALID,0.420703,
2009-03-22, 01:16:05,VALID,999.785,VALID,0,VALID,93.2111,VALID,0,VALID,23.0396,VALID,103,VALID,0.434766,
2009-03-22, 01:17:05,VALID,999.775,VALID,0,VALID,92.9059,VALID,0,VALID,23.0591,VALID,101,VALID,0.496094,
2009-03-22, 01:18:05,VALID,999.745,VALID,0,VALID,92.677,VALID,0,VALID,23.0396,VALID,71,VALID,0.487891,
2009-03-22, 01:19:05,VALID,999.737,VALID,0,VALID,92.738,VALID,0,VALID,23.0201,VALID,65,VALID,0.564844,
2009-03-22, 01:20:05,VALID,999.739,VALID,0,VALID,92.5931,VALID,0,VALID,22.9811,VALID,65,VALID,0.570313,
2009-03-22, 01:21:05,VALID,999.733,VALID,0,VALID,92.7457,VALID,0,VALID,22.9013,VALID,64,VALID,0.661719,
2009-03-22, 01:22:05,VALID,999.69,VALID,0,VALID,93.0661,VALID,0,VALID,22.8818,VALID,64,VALID,0.603125,
2009-03-22, 01:23:05,VALID,999.706,VALID,0,VALID,93.0508,VALID,0,VALID,22.9047,VALID,64,VALID,0.569922,
2009-03-22, 01:24:05,VALID,999.702,VALID,0,VALID,92.9288,VALID,0,VALID,22.864,VALID,69,VALID,0.5875,
2009-03-22, 01:25:05,VALID,999.722,VALID,0,VALID,93.089,VALID,0,VALID,22.864,VALID,69,VALID,0.48125,
2009-03-22, 01:26:05,VALID,999.712,VALID,0,VALID,93.0127,VALID,0,VALID,22.864,VALID,69,VALID,0.353516,
2009-03-22, 01:27:05,VALID,999.71,VALID,0,VALID,92.9822,VALID,0,VALID,22.864,VALID,69,VALID,0.257031,
2009-03-22, 01:28:05,VALID,999.718,VALID,0,VALID,93.0585,VALID,0,VALID,22.864,VALID,69,VALID,0.121484,
2009-03-22, 01:29:05,VALID,999.695,VALID,0,VALID,93.0814,VALID,0,VALID,22.864,VALID,69,VALID,0.219141,
2009-03-22, 01:30:05,VALID,999.713,VALID,0,VALID,93.0508,VALID,0,VALID,22.8852,VALID,69,VALID,0.171875,
2009-03-22, 01:31:05,VALID,999.686,VALID,0,VALID,93.0356,VALID,0,VALID,22.864,VALID,69,VALID,0.194141,
2009-03-22, 01:32:05,VALID,999.705,VALID,0,VALID,93.0814,VALID,0,VALID,22.8835,VALID,69,VALID,0.213281,
2009-03-22, 01:33:05,VALID,999.717,VALID,0,VALID,93.028,VALID,0,VALID,22.8835,VALID,69,VALID,0.266797,
2009-03-22, 01:34:05,VALID,999.704,VALID,0,VALID,92.9669,VALID,0,VALID,22.8835,VALID,69,VALID,0.096875,
2009-03-22, 01:35:05,VALID,999.718,VALID,0,VALID,93.0203,VALID,0,VALID,22.8835,VALID,69,VALID,0,
2009-03-22, 01:36:05,VALID,999.69,VALID,0,VALID,93.0051,VALID,0,VALID,22.8445,VALID,69,VALID,0.0898438,
2009-03-22, 01:37:05,VALID,999.705,VALID,0,VALID,92.9974,VALID,0,VALID,22.825,VALID,69,VALID,0.216406,
2009-03-22, 01:38:05,VALID,999.691,VALID,0,VALID,93.0432,VALID,0,VALID,22.825,VALID,69,VALID,0.161328,
2009-03-22, 01:39:05,VALID,999.702,VALID,0,VALID,93.234,VALID,0,VALID,22.8055,VALID,69,VALID,0,
2009-03-22, 01:40:05,VALID,999.67,VALID,0,VALID,93.3866,VALID,0,VALID,22.8055,VALID,69,VALID,0,
2009-03-22, 01:41:05,VALID,999.675,VALID,0,VALID,93.3866,VALID,0,VALID,22.825,VALID,69,VALID,0,
2009-03-22, 01:42:05,VALID,999.665,VALID,0,VALID,93.295,VALID,0,VALID,22.786,VALID,69,VALID,0,
2009-03-22, 01:43:05,VALID,999.634,VALID,0,VALID,93.2416,VALID,0,VALID,22.7664,VALID,69,VALID,0,
2009-03-22, 01:44:05,VALID,999.625,VALID,0,VALID,93.4094,VALID,0,VALID,22.7469,VALID,69,VALID,0,
2009-03-22, 01:45:05,VALID,999.607,VALID,0,VALID,93.5849,VALID,0,VALID,22.7469,VALID,69,VALID,0,
2009-03-22, 01:46:05,VALID,999.577,VALID,0,VALID,93.6383,VALID,0,VALID,22.7664,VALID,69,VALID,0,
2009-03-22, 01:47:05,VALID,999.581,VALID,0,VALID,93.7146,VALID,0,VALID,22.7664,VALID,69,VALID,0,
2009-03-22, 01:48:05,VALID,999.575,VALID,0,VALID,93.7757,VALID,0,VALID,22.786,VALID,69,VALID,0.125,
2009-03-22, 01:49:05,VALID,999.57,VALID,0,VALID,93.7833,VALID,0,VALID,22.8055,VALID,69,VALID,0.186719,
2009-03-22, 01:50:05,VALID,999.578,VALID,0,VALID,93.7375,VALID,0,VALID,22.825,VALID,69,VALID,0.121875,
2009-03-22, 01:51:05,VALID,999.605,VALID,0,VALID,93.707,VALID,0,VALID,22.8445,VALID,69,VALID,0,
2009-03-22, 01:52:05,VALID,999.583,VALID,0,VALID,93.6612,VALID,0,VALID,22.8445,VALID,69,VALID,0,
2009-03-22, 01:53:05,VALID,999.585,VALID,0,VALID,93.5849,VALID,0,VALID,22.8445,VALID,69,VALID,0,
2009-03-22, 01:54:05,VALID,999.597,VALID,0,VALID,93.5468,VALID,0,VALID,22.8445,VALID,69,VALID,0,
2009-03-22, 01:55:05,VALID,999.591,VALID,0,VALID,93.4628,VALID,0,VALID,22.825,VALID,69,VALID,0,
2009-03-22, 01:56:05,VALID,999.578,VALID,0,VALID,93.3331,VALID,0,VALID,22.7842,VALID,69,VALID,0,
2009-03-22, 01:57:05,VALID,999.596,VALID,0,VALID,93.1729,VALID,0,VALID,22.7664,VALID,69,VALID,0,
2009-03-22, 01:58:05,VALID,999.601,VALID,0,VALID,93.1271,VALID,0,VALID,22.7062,VALID,69,VALID,0.452734,
2009-03-22, 01:59:05,VALID,999.609,VALID,0,VALID,93.3026,VALID,0,VALID,22.6689,VALID,44,VALID,0.619922,
2009-03-22, 02:00:05,VALID,999.593,VALID,0,VALID,93.5315,VALID,0,VALID,22.6494,VALID,44,VALID,0.603906,
2009-03-22, 02:01:05,VALID,999.593,VALID,0,VALID,93.8825,VALID,0,VALID,22.6299,VALID,44,VALID,0.607031,
2009-03-22, 02:02:05,VALID,999.577,VALID,0,VALID,94.0351,VALID,0,VALID,22.6299,VALID,44,VALID,0.673828,
2009-03-22, 02:03:05,VALID,999.598,VALID,0,VALID,94.1571,VALID,0,VALID,22.6689,VALID,44,VALID,0.668359,
2009-03-22, 02:04:05,VALID,999.581,VALID,0,VALID,94.058,VALID,0,VALID,22.6689,VALID,51,VALID,0.984375,
2009-03-22, 02:05:05,VALID,999.598,VALID,0,VALID,93.6002,VALID,0,VALID,22.6494,VALID,52,VALID,1.06211,
2009-03-22, 02:06:05,VALID,999.593,VALID,0,VALID,93.5315,VALID,0,VALID,22.6494,VALID,52,VALID,1.14961,
2009-03-22, 02:07:05,VALID,999.606,VALID,0,VALID,93.4018,VALID,0,VALID,22.6104,VALID,52,VALID,1.20586,
2009-03-22, 02:08:05,VALID,999.583,VALID,0,VALID,93.5163,VALID,0,VALID,22.5909,VALID,52,VALID,1.15078,
2009-03-22, 02:09:05,VALID,999.58,VALID,0,VALID,93.3942,VALID,0,VALID,22.5909,VALID,51,VALID,1.03711,
2009-03-22, 02:10:05,VALID,999.587,VALID,0,VALID,93.4934,VALID,0,VALID,22.5519,VALID,53,VALID,1.10625,
2009-03-22, 02:11:05,VALID,999.581,VALID,0,VALID,93.5544,VALID,0,VALID,22.5323,VALID,50,VALID,1.16641,
2009-03-22, 02:12:05,VALID,999.55,VALID,0,VALID,93.7375,VALID,0,VALID,22.5323,VALID,50,VALID,1.24844,
2009-03-22, 02:13:05,VALID,999.563,VALID,0,VALID,93.8367,VALID,0,VALID,22.4933,VALID,48,VALID,1.15195,
2009-03-22, 02:14:05,VALID,999.566,VALID,0,VALID,93.9283,VALID,0,VALID,22.4933,VALID,51,VALID,1.20938,
2009-03-22, 02:15:05,VALID,999.6,VALID,0,VALID,93.9588,VALID,0,VALID,22.4738,VALID,49,VALID,1.17109,
2009-03-22, 02:16:05,VALID,999.593,VALID,0,VALID,94.0656,VALID,0,VALID,22.4738,VALID,48,VALID,1.28164,
2009-03-22, 02:17:05,VALID,999.599,VALID,0,VALID,94.1266,VALID,0,VALID,22.4543,VALID,48,VALID,1.1457,
2009-03-22, 02:18:05,VALID,999.615,VALID,0,VALID,94.0656,VALID,0,VALID,22.4348,VALID,46,VALID,1.12305,
2009-03-22, 02:19:05,VALID,999.6,VALID,0,VALID,94.0427,VALID,0,VALID,22.4153,VALID,44,VALID,1.23242,
2009-03-22, 02:20:05,VALID,999.596,VALID,0,VALID,94.058,VALID,0,VALID,22.4153,VALID,42,VALID,1.07148,
2009-03-22, 02:21:05,VALID,999.592,VALID,0,VALID,94.1343,VALID,0,VALID,22.3958,VALID,40,VALID,1.0082,
2009-03-22, 02:22:05,VALID,999.592,VALID,0,VALID,94.058,VALID,0,VALID,22.3763,VALID,39,VALID,0.660156,
2009-03-22, 02:23:05,VALID,999.558,VALID,0,VALID,94.0122,VALID,0,VALID,22.3373,VALID,36,VALID,0.921094,
2009-03-22, 02:24:05,VALID,999.557,VALID,0,VALID,94.2029,VALID,0,VALID,22.3568,VALID,32,VALID,0.919531,
2009-03-22, 02:25:05,VALID,999.574,VALID,0,VALID,94.119,VALID,0,VALID,22.3373,VALID,32,VALID,0.56875,
2009-03-22, 02:26:05,VALID,999.605,VALID,0,VALID,94.1724,VALID,0,VALID,22.2983,VALID,32,VALID,0.458984,
2009-03-22, 02:27:05,VALID,999.614,VALID,0,VALID,94.2029,VALID,0,VALID,22.2788,VALID,32,VALID,0.341406,
2009-03-22, 02:28:05,VALID,999.606,VALID,0,VALID,94.2258,VALID,0,VALID,22.2788,VALID,32,VALID,0.231641,
2009-03-22, 02:29:05,VALID,999.637,VALID,0,VALID,94.2716,VALID,0,VALID,22.2788,VALID,32,VALID,0.169531,
2009-03-22, 02:30:05,VALID,999.677,VALID,0,VALID,94.3631,VALID,0,VALID,22.2788,VALID,32,VALID,0.217969,
2009-03-22, 02:31:05,VALID,999.663,VALID,0,VALID,94.4013,VALID,0,VALID,22.2788,VALID,32,VALID,0.152344,
2009-03-22, 02:32:05,VALID,999.714,VALID,0,VALID,94.4165,VALID,0,VALID,22.2771,VALID,32,VALID,0,
2009-03-22, 02:33:05,VALID,999.679,VALID,0,VALID,94.4165,VALID,0,VALID,22.3178,VALID,32,VALID,0,
2009-03-22, 02:34:05,VALID,999.663,VALID,0,VALID,94.4165,VALID,0,VALID,22.2983,VALID,32,VALID,0,
2009-03-22, 02:35:05,VALID,999.695,VALID,0,VALID,94.5462,VALID,0,VALID,22.2771,VALID,32,VALID,0.245703,
2009-03-22, 02:36:05,VALID,999.698,VALID,0,VALID,94.6226,VALID,0,VALID,22.2983,VALID,32,VALID,0.505078,
2009-03-22, 02:37:05,VALID,999.676,VALID,0,VALID,94.6226,VALID,0,VALID,22.3178,VALID,32,VALID,0.582031,
2009-03-22, 02:38:05,VALID,999.711,VALID,0,VALID,94.6531,VALID,0,VALID,22.3178,VALID,32,VALID,0.576953,
2009-03-22, 02:39:05,VALID,999.714,VALID,0,VALID,94.5539,VALID,0,VALID,22.3178,VALID,34,VALID,0.562891,
2009-03-22, 02:40:05,VALID,999.715,VALID,0,VALID,94.5615,VALID,0,VALID,22.3373,VALID,34,VALID,0.457812,
2009-03-22, 02:41:05,VALID,999.69,VALID,0,VALID,94.3937,VALID,0,VALID,22.2983,VALID,37,VALID,0.755078,
2009-03-22, 02:42:05,VALID,999.781,VALID,0,VALID,94.4623,VALID,0,VALID,22.3178,VALID,42,VALID,0.641016,
2009-03-22, 02:43:05,VALID,999.72,VALID,0,VALID,94.4165,VALID,0,VALID,22.2983,VALID,55,VALID,0.498828,
2009-03-22, 02:44:05,VALID,999.76,VALID,0,VALID,94.3708,VALID,0,VALID,22.2983,VALID,71,VALID,0.398828,
2009-03-22, 02:45:05,VALID,999.744,VALID,0,VALID,94.325,VALID,0,VALID,22.2983,VALID,71,VALID,0.229297,
2009-03-22, 02:46:05,VALID,999.769,VALID,0,VALID,94.3326,VALID,0,VALID,22.2983,VALID,71,VALID,0.173047,
2009-03-22, 02:47:05,VALID,999.763,VALID,0,VALID,94.3937,VALID,0,VALID,22.2983,VALID,71,VALID,0.315234,
2009-03-22, 02:48:05,VALID,999.78,VALID,0,VALID,94.5005,VALID,0,VALID,22.3178,VALID,105,VALID,0.396875,
2009-03-22, 02:49:05,VALID,999.768,VALID,0,VALID,94.6378,VALID,0,VALID,22.3373,VALID,125,VALID,0.711328,
2009-03-22, 02:50:05,VALID,999.751,VALID,0,VALID,94.6149,VALID,0,VALID,22.3958,VALID,129,VALID,0.709375,
2009-03-22, 02:51:05,VALID,999.755,VALID,0,VALID,94.5615,VALID,0,VALID,22.4153,VALID,129,VALID,0.632422,
2009-03-22, 02:52:05,VALID,999.779,VALID,0,VALID,94.4776,VALID,0,VALID,22.4543,VALID,131,VALID,0.667578,
2009-03-22, 02:53:05,VALID,999.781,VALID,0,VALID,94.4165,VALID,0,VALID,22.4738,VALID,138,VALID,0.704297,
2009-03-22, 02:54:05,VALID,999.781,VALID,0,VALID,94.3021,VALID,0,VALID,22.4933,VALID,141,VALID,0.710156,
2009-03-22, 02:55:05,VALID,999.753,VALID,0,VALID,94.2411,VALID,0,VALID,22.5323,VALID,145,VALID,0.677344,
2009-03-22, 02:56:05,VALID,999.772,VALID,0,VALID,94.1266,VALID,0,VALID,22.5519,VALID,145,VALID,0.676953,
2009-03-22, 02:57:05,VALID,999.745,VALID,0,VALID,94.0503,VALID,0,VALID,22.5306,VALID,146,VALID,0.583984,
2009-03-22, 02:58:05,VALID,999.733,VALID,0,VALID,93.9283,VALID,0,VALID,22.5519,VALID,146,VALID,0.50625,
2009-03-22, 02:59:05,VALID,999.737,VALID,0,VALID,93.9054,VALID,0,VALID,22.5519,VALID,146,VALID,0.580469,
2009-03-22, 03:00:05,VALID,999.743,VALID,0,VALID,93.8138,VALID,0,VALID,22.5714,VALID,146,VALID,0.495313,
2009-03-22, 03:01:05,VALID,999.756,VALID,0,VALID,93.8214,VALID,0,VALID,22.5519,VALID,146,VALID,0.648047,
2009-03-22, 03:02:05,VALID,999.741,VALID,0,VALID,93.8214,VALID,0,VALID,22.5519,VALID,145,VALID,0.916797,
2009-03-22, 03:03:05,VALID,999.724,VALID,0,VALID,93.7223,VALID,0,VALID,22.5306,VALID,145,VALID,0.607813,
2009-03-22, 03:04:05,VALID,999.747,VALID,0,VALID,93.6078,VALID,0,VALID,22.5323,VALID,144,VALID,0.549219,
2009-03-22, 03:05:05,VALID,999.7,VALID,0,VALID,93.562,VALID,0,VALID,22.5519,VALID,146,VALID,0.609766,
2009-03-22, 03:06:05,VALID,999.686,VALID,0,VALID,93.4018,VALID,0,VALID,22.5306,VALID,144,VALID,0.623438,
2009-03-22, 03:07:05,VALID,999.71,VALID,0,VALID,93.3408,VALID,0,VALID,22.5323,VALID,141,VALID,0.726563,
2009-03-22, 03:08:05,VALID,999.736,VALID,0,VALID,93.3026,VALID,0,VALID,22.4916,VALID,141,VALID,0.704297,
2009-03-22, 03:09:05,VALID,999.76,VALID,0,VALID,93.3103,VALID,0,VALID,22.5128,VALID,140,VALID,0.68125,
2009-03-22, 03:10:05,VALID,999.757,VALID,0,VALID,93.3408,VALID,0,VALID,22.5128,VALID,135,VALID,0.642578,
2009-03-22, 03:11:05,VALID,999.755,VALID,0,VALID,93.2645,VALID,0,VALID,22.5128,VALID,113,VALID,0.607422,
2009-03-22, 03:12:05,VALID,999.771,VALID,0,VALID,93.2492,VALID,0,VALID,22.5111,VALID,88,VALID,0.751172,
2009-03-22, 03:13:05,VALID,999.768,VALID,0,VALID,92.9517,VALID,0,VALID,22.5519,VALID,88,VALID,0.665625,
2009-03-22, 03:14:05,VALID,999.751,VALID,0,VALID,92.822,VALID,0,VALID,22.5323,VALID,88,VALID,0.65625,
2009-03-22, 03:15:05,VALID,999.748,VALID,0,VALID,92.8906,VALID,0,VALID,22.5111,VALID,88,VALID,0.755078,
2009-03-22, 03:16:05,VALID,999.75,VALID,0,VALID,92.6312,VALID,0,VALID,22.5128,VALID,87,VALID,0.986719,
2009-03-22, 03:17:05,VALID,999.742,VALID,0,VALID,92.471,VALID,0,VALID,22.4933,VALID,90,VALID,0.986328,
2009-03-22, 03:18:05,VALID,999.737,VALID,0,VALID,92.738,VALID,0,VALID,22.4721,VALID,86,VALID,0.925391,
2009-03-22, 03:19:05,VALID,999.751,VALID,0,VALID,92.6923,VALID,0,VALID,22.5128,VALID,69,VALID,0.780859,
2009-03-22, 03:20:05,VALID,999.756,VALID,0,VALID,92.41,VALID,0,VALID,22.4721,VALID,85,VALID,0.482422,
2009-03-22, 03:21:05,VALID,999.769,VALID,0,VALID,92.3413,VALID,0,VALID,22.4738,VALID,72,VALID,0.0519531,
2009-03-22, 03:22:05,VALID,999.813,VALID,0,VALID,92.3031,VALID,0,VALID,22.4331,VALID,72,VALID,0.0183594,
2009-03-22, 03:23:05,VALID,999.79,VALID,0,VALID,92.2574,VALID,0,VALID,22.4348,VALID,72,VALID,0.310156,
2009-03-22, 03:24:05,VALID,999.796,VALID,0,VALID,92.2879,VALID,0,VALID,22.4153,VALID,72,VALID,0.168359,
2009-03-22, 03:25:05,VALID,999.798,VALID,0,VALID,92.2879,VALID,0,VALID,22.3763,VALID,67,VALID,0.498047,
2009-03-22, 03:26:05,VALID,999.811,VALID,0,VALID,92.265,VALID,0,VALID,22.3356,VALID,56,VALID,0.929688,
2009-03-22, 03:27:05,VALID,999.788,VALID,0,VALID,92.3108,VALID,0,VALID,22.3373,VALID,57,VALID,0.986328,
2009-03-22, 03:28:05,VALID,999.778,VALID,0,VALID,92.12,VALID,0,VALID,22.3568,VALID,57,VALID,0.897656,
2009-03-22, 03:29:05,VALID,999.808,VALID,0,VALID,92.0056,VALID,0,VALID,22.3356,VALID,64,VALID,0.932813,
2009-03-22, 03:30:05,VALID,999.774,VALID,0,VALID,92.0743,VALID,0,VALID,22.3568,VALID,71,VALID,0.811328,
2009-03-22, 03:31:05,VALID,999.774,VALID,0,VALID,91.9293,VALID,0,VALID,22.3568,VALID,72,VALID,0.684375,
2009-03-22, 03:32:05,VALID,999.768,VALID,0,VALID,91.853,VALID,0,VALID,22.3763,VALID,74,VALID,0.401953,
2009-03-22, 03:33:05,VALID,999.771,VALID,0,VALID,91.7767,VALID,0,VALID,22.3763,VALID,74,VALID,0.223047,
2009-03-22, 03:34:05,VALID,999.781,VALID,0,VALID,91.8988,VALID,0,VALID,22.3763,VALID,83,VALID,0.399219,
2009-03-22, 03:35:05,VALID,999.83,VALID,0,VALID,91.8072,VALID,0,VALID,22.3568,VALID,83,VALID,0.349219,
2009-03-22, 03:36:05,VALID,999.852,VALID,0,VALID,91.8072,VALID,0,VALID,22.3763,VALID,83,VALID,0.3,
2009-03-22, 03:37:05,VALID,999.889,VALID,0,VALID,91.8301,VALID,0,VALID,22.3568,VALID,81,VALID,0.702344,
2009-03-22, 03:38:05,VALID,999.925,VALID,0,VALID,91.7233,VALID,0,VALID,22.3763,VALID,81,VALID,0.446094,
2009-03-22, 03:39:05,VALID,999.912,VALID,0,VALID,91.7996,VALID,0,VALID,22.3568,VALID,52,VALID,0.307422,
2009-03-22, 03:40:05,VALID,999.889,VALID,0,VALID,91.7538,VALID,0,VALID,22.3568,VALID,52,VALID,0.122656,
2009-03-22, 03:41:05,VALID,999.874,VALID,0,VALID,91.8988,VALID,0,VALID,22.3373,VALID,57,VALID,0.276953,
2009-03-22, 03:42:05,VALID,999.924,VALID,0,VALID,91.9522,VALID,0,VALID,22.3568,VALID,83,VALID,0.438281,
2009-03-22, 03:43:05,VALID,999.86,VALID,0,VALID,91.998,VALID,0,VALID,22.3763,VALID,83,VALID,0.709375,
2009-03-22, 03:44:05,VALID,999.901,VALID,0,VALID,91.9674,VALID,0,VALID,22.4153,VALID,83,VALID,0.716797,
2009-03-22, 03:45:05,VALID,999.893,VALID,0,VALID,91.8072,VALID,0,VALID,22.4348,VALID,82,VALID,0.951563,
2009-03-22, 03:46:05,VALID,999.879,VALID,0,VALID,91.7004,VALID,0,VALID,22.4331,VALID,48,VALID,0.794922,
2009-03-22, 03:47:05,VALID,999.872,VALID,0,VALID,91.6546,VALID,0,VALID,22.4153,VALID,45,VALID,0.822656,
2009-03-22, 03:48:05,VALID,999.859,VALID,0,VALID,91.5554,VALID,0,VALID,22.3568,VALID,38,VALID,0.784766,